Weather History for K1V6 - December, 2013

Change the Weather History Date:

Tuesday, December 31, 2013

  Actual Average (KPUB) Record (KPUB)
Temperature  
Mean Temperature 46 °F 30 °F  
Max Temperature 59 °F 46 °F 69 °F (1904)
Min Temperature 32 °F 14 °F -17 °F (2014)
Degree Days  
Heating Degree Days 20 35  
Month to date heating degree days 1083  
Since 1 July heating degree days 2363  
Cooling Degree Days 0 0  
Month to date cooling degree days 0  
Year to date cooling degree days 897  
Moisture  
Dew Point 22 °F    
Average Humidity 41    
Maximum Humidity 60    
Minimum Humidity 27    
Precipitation  
Precipitation 0.00 in 0.01 in 0.42 in (1924)
Month to date precipitation 0.38  
Year to date precipitation 12.57  
Snow  
Snow 0.00 in 0.20 in 4.20 in (1924)
Month to date snowfall 5.5  
Since 1 July snowfall 11.5  
Snow Depth -    
Sea Level Pressure  
Sea Level Pressure 30.03 in    
Wind  
Wind Speed 10 mph (WNW)    
Max Wind Speed 21 mph    
Max Gust Speed 25 mph    
Visibility 10 miles    
Events      
T = Trace of Precipitation, MM = Missing Value Source: NWS Daily Summary

Daily Weather History Graph

Daily Weather History Graph

Search for Another Location

Airport or City:

Trip Planner

Search our weather history database for the weather conditions in past years. The results will help you decide how hot, cold, wet, or windy it might be!

Date:

Astronomy

Dec. 31, 2013 Rise Set
Actual Time 7:17 AM MST 4:49 PM MST
Civil Twilight 6:47 AM MST 5:19 PM MST
Nautical Twilight 6:14 AM MST 5:52 PM MST
Astronomical Twilight 5:42 AM MST 6:24 PM MST
Moon 6:13 AM MST (12/31) 4:28 PM MST (12/31)
Length of Visible Light 10h 31m
Length of Day
9h 32m
Waning Crescent, 1% of the Moon is Illuminated
Dec 31
Waning Crescent
Jan 1
New
Jan 7
First Quarter
Jan 15
Full
Jan 23
Last Quarter

Hourly Weather History & Observations

Time (MST) Temp. Windchill Dew Point Humidity Pressure Visibility Wind Dir Wind Speed Gust Speed Precip Events Conditions
12:15 AM 32.0 °F 24.2 °F 17.6 °F 55% 30.13 in 10.0 mi West 9.2 mph - N/A   Clear
12:35 AM 32.0 °F 24.8 °F 19.4 °F 60% 30.12 in 10.0 mi WSW 8.1 mph - N/A   Clear
12:55 AM 33.8 °F 29.6 °F 17.6 °F 52% 30.12 in 10.0 mi West 4.6 mph - N/A   Clear
1:15 AM 37.4 °F 33.8 °F 15.8 °F 41% 30.10 in 10.0 mi West 4.6 mph - N/A   Clear
1:35 AM 35.6 °F 32.8 °F 15.8 °F 44% 30.10 in 10.0 mi WSW 3.5 mph - N/A   Clear
1:55 AM 35.6 °F - 15.8 °F 44% 30.11 in 10.0 mi Calm Calm - N/A   Clear
2:15 AM 35.6 °F 31.7 °F 17.6 °F 48% 30.09 in 10.0 mi West 4.6 mph - N/A   Clear
2:35 AM 37.4 °F 28.2 °F 19.4 °F 48% 30.09 in 10.0 mi West 16.1 mph - N/A   Clear
2:55 AM 37.4 °F 29.3 °F 17.6 °F 45% 30.09 in 10.0 mi WNW 12.7 mph - N/A   Clear
3:15 AM 37.4 °F 28.2 °F 19.4 °F 48% 30.08 in 10.0 mi West 16.1 mph - N/A   Clear
3:35 AM 35.6 °F 26.2 °F 19.4 °F 52% 30.07 in 10.0 mi WNW 15.0 mph - N/A   Clear
3:55 AM 37.4 °F 27.8 °F 17.6 °F 45% 30.06 in 10.0 mi WNW 17.3 mph - N/A   Clear
4:15 AM 35.6 °F 26.2 °F 17.6 °F 48% 30.06 in 10.0 mi NW 15.0 mph - N/A   Clear
4:35 AM 35.6 °F 26.6 °F 17.6 °F 48% 30.06 in 10.0 mi NW 13.8 mph - N/A   Clear
4:55 AM 37.4 °F 28.2 °F 17.6 °F 45% 30.05 in 10.0 mi NW 16.1 mph - N/A   Clear
5:15 AM 37.4 °F 28.2 °F 17.6 °F 45% 30.04 in 10.0 mi NW 16.1 mph - N/A   Clear
5:35 AM 39.2 °F 29.8 °F 17.6 °F 42% 30.05 in 10.0 mi WNW 18.4 mph - N/A   Clear
5:55 AM 41.0 °F 32.2 °F 17.6 °F 39% 30.05 in 10.0 mi WNW 18.4 mph 25.3 mph N/A   Clear
6:15 AM 37.4 °F 27.8 °F 17.6 °F 45% 30.05 in 10.0 mi WNW 17.3 mph - N/A   Clear
6:25 AM 37.4 °F 28.2 °F 17.6 °F 45% 30.06 in 10.0 mi WNW 16.1 mph - N/A   Clear
6:55 AM 35.6 °F 28.6 °F 17.6 °F 48% 30.06 in 10.0 mi West 9.2 mph - N/A   Clear
7:15 AM 33.8 °F 25.8 °F 17.6 °F 52% 30.06 in 10.0 mi West 10.4 mph - N/A   Clear
7:35 AM 35.6 °F 27.5 °F 17.6 °F 48% 30.06 in 10.0 mi WNW 11.5 mph - N/A   Clear
7:55 AM 37.4 °F 32.1 °F 17.6 °F 45% 30.06 in 10.0 mi WNW 6.9 mph - N/A   Clear
8:15 AM 37.4 °F 30.8 °F 17.6 °F 45% 30.06 in 10.0 mi West 9.2 mph - N/A   Clear
8:35 AM 41.0 °F 34.3 °F 19.4 °F 42% 30.06 in 10.0 mi West 11.5 mph - N/A   Clear
8:55 AM 41.0 °F 35.8 °F 19.4 °F 42% 30.07 in 10.0 mi West 8.1 mph - N/A   Clear
9:15 AM 42.8 °F - 21.2 °F 42% 30.07 in 10.0 mi Calm Calm - N/A   Clear
9:35 AM 44.6 °F 43.1 °F 21.2 °F 39% 30.07 in 10.0 mi NE 3.5 mph - N/A   Clear
9:55 AM 48.2 °F - 19.4 °F 32% 30.07 in 10.0 mi Calm Calm - N/A   Clear
10:15 AM 51.8 °F - 21.2 °F 30% 30.07 in 10.0 mi West 9.2 mph - N/A   Clear
10:35 AM 53.6 °F - 21.2 °F 28% 30.07 in 10.0 mi West 12.7 mph - N/A   Clear
10:55 AM 53.6 °F - 21.2 °F 28% 30.04 in 10.0 mi West 13.8 mph 19.6 mph N/A   Clear
11:15 AM 55.4 °F - 23.0 °F 29% 30.03 in 10.0 mi West 5.8 mph - N/A   Clear
11:35 AM 55.4 °F - 23.0 °F 29% 30.01 in 10.0 mi West 12.7 mph - N/A   Clear
11:55 AM 55.4 °F - 24.8 °F 31% 30.00 in 10.0 mi West 20.7 mph 25.3 mph N/A   Clear
12:15 PM 57.2 °F - 23.0 °F 27% 30.00 in 10.0 mi West 13.8 mph 24.2 mph N/A   Clear
12:35 PM 59.0 °F - 24.8 °F 27% 29.99 in 10.0 mi West 12.7 mph 17.3 mph N/A   Clear
12:55 PM 59.0 °F - 24.8 °F 27% 29.97 in 10.0 mi WSW 15.0 mph 19.6 mph N/A   Clear
1:15 PM 59.0 °F - 24.8 °F 27% 29.97 in 10.0 mi West 12.7 mph - N/A   Clear
1:35 PM 59.0 °F - 26.6 °F 29% 29.96 in 10.0 mi WSW 13.8 mph - N/A   Clear
1:55 PM 59.0 °F - 24.8 °F 27% 29.97 in 10.0 mi West 8.1 mph - N/A   Clear
2:15 PM 59.0 °F - 26.6 °F 29% 29.96 in 10.0 mi West 10.4 mph - N/A   Clear
2:35 PM 59.0 °F - 24.8 °F 27% 29.96 in 10.0 mi WSW 10.4 mph - N/A   Clear
2:55 PM 59.0 °F - 26.6 °F 29% 29.96 in 10.0 mi West 11.5 mph - N/A   Clear
3:15 PM 59.0 °F - 26.6 °F 29% 29.96 in 10.0 mi West 11.5 mph - N/A   Clear
3:35 PM 59.0 °F - 24.8 °F 27% 29.97 in 10.0 mi West 17.3 mph 24.2 mph N/A   Clear
3:55 PM 57.2 °F - 24.8 °F 29% 29.97 in 10.0 mi West 13.8 mph - N/A   Clear
4:15 PM 55.4 °F - 24.8 °F 31% 29.97 in 10.0 mi WSW 10.4 mph - N/A   Clear
4:35 PM 51.8 °F - 24.8 °F 35% 29.98 in 10.0 mi West 9.2 mph - N/A   Clear
4:55 PM 48.2 °F - 26.6 °F 43% 29.98 in 10.0 mi WSW 10.4 mph - N/A   Clear
5:15 PM 50.0 °F - 24.8 °F 37% 29.98 in 10.0 mi West 10.4 mph - N/A   Clear
5:35 PM 46.4 °F 41.1 °F 26.6 °F 46% 29.99 in 10.0 mi West 11.5 mph - N/A   Clear
5:55 PM 46.4 °F 41.1 °F 24.8 °F 43% 30.00 in 10.0 mi West 11.5 mph - N/A   Clear
6:15 PM 44.6 °F 39.2 °F 24.8 °F 46% 30.01 in 10.0 mi NW 10.4 mph - N/A   Clear
6:35 PM 44.6 °F 39.2 °F 24.8 °F 46% 30.01 in 10.0 mi WNW 10.4 mph - N/A   Clear
6:55 PM 44.6 °F 38.1 °F 24.8 °F 46% 30.01 in 10.0 mi WNW 13.8 mph - N/A   Clear
7:15 PM 42.8 °F 36.6 °F 24.8 °F 49% 30.01 in 10.0 mi NW 11.5 mph - N/A   Clear
7:35 PM 46.4 °F 40.4 °F 23.0 °F 40% 30.01 in 10.0 mi NW 13.8 mph - N/A   Clear
7:55 PM 46.4 °F 41.9 °F 23.0 °F 40% 30.02 in 10.0 mi NW 9.2 mph 17.3 mph N/A   Clear
8:15 PM 44.6 °F 38.4 °F 23.0 °F 43% 30.01 in 10.0 mi NW 12.7 mph - N/A   Clear
8:35 PM 44.6 °F 39.2 °F 23.0 °F 43% 30.01 in 10.0 mi NW 10.4 mph - N/A   Clear
8:55 PM 42.8 °F 36.2 °F 23.0 °F 46% 29.99 in 10.0 mi NW 12.7 mph - N/A   Clear
9:15 PM 42.8 °F 36.2 °F 23.0 °F 46% 30.00 in 10.0 mi NW 12.7 mph - N/A   Clear
9:35 PM 42.8 °F 36.6 °F 23.0 °F 46% 29.99 in 10.0 mi NW 11.5 mph - N/A   Clear
9:55 PM 42.8 °F 38.0 °F 23.0 °F 46% 29.99 in 10.0 mi WNW 8.1 mph - N/A   Clear
10:15 PM 39.2 °F 34.2 °F 23.0 °F 52% 29.98 in 10.0 mi NW 6.9 mph - N/A   Clear
10:35 PM 39.2 °F 34.2 °F 23.0 °F 52% 29.97 in 10.0 mi NW 6.9 mph - N/A   Clear
10:55 PM 37.4 °F 30.8 °F 23.0 °F 56% 29.97 in 10.0 mi NW 9.2 mph - N/A   Clear
11:15 PM 35.6 °F 28.0 °F 23.0 °F 60% 29.96 in 10.0 mi NNW 10.4 mph - N/A   Clear
11:35 PM 37.4 °F 30.8 °F 23.0 °F 56% 29.95 in 10.0 mi NNW 9.2 mph - N/A   Clear
11:55 PM 37.4 °F 30.3 °F 23.0 °F 56% 29.95 in 10.0 mi NNW 10.4 mph - N/A   Clear